�������l�o���
Date,Time,MP-1(��Sv/h),MP-2(��Sv/h),MP-3(��Sv/h),MP-4(��Sv/h),MP-5(��Sv/h),MP-6(��Sv/h),MP-7(��Sv/h),MP-8(��Sv/h),����,����(m/s),���J
2019/08/30,00:00,0.741,1.035,0.722,1.289,0.945,0.424,0.735,0.695,��쐼,0.6,��
2019/08/30,00:10,0.742,1.037,0.724,1.291,0.941,0.424,0.733,0.695,���쐼,0.9,��
2019/08/30,00:20,0.740,1.036,0.722,1.291,0.942,0.423,0.737,0.695,���k��,1.5,��
2019/08/30,00:30,0.742,1.035,0.722,1.289,0.944,0.424,0.736,0.695,�k��,2.3,��
2019/08/30,00:40,0.741,1.035,0.720,1.292,0.942,0.422,0.736,0.696,���k��,3.2,��
2019/08/30,00:50,0.741,1.036,0.722,1.289,0.942,0.424,0.734,0.695,���k��,2.2,��
2019/08/30,01:00,0.742,1.036,0.722,1.291,0.946,0.423,0.737,0.694,���k��,2.6,��
2019/08/30,01:10,0.740,1.035,0.722,1.290,0.942,0.423,0.735,0.696,���k��,2.6,��
2019/08/30,01:20,0.742,1.035,0.721,1.289,0.943,0.423,0.735,0.695,�k��,1.7,��
2019/08/30,01:30,0.740,1.036,0.725,1.289,0.944,0.424,0.734,0.695,���k��,2.5,��
2019/08/30,01:40,0.741,1.037,0.722,1.291,0.944,0.424,0.736,0.695,���k��,3.6,��
2019/08/30,01:50,0.742,1.036,0.722,1.291,0.942,0.423,0.736,0.694,�k��,4.3,��
2019/08/30,02:00,0.742,1.035,0.723,1.290,0.944,0.424,0.736,0.695,���k��,1.9,��
2019/08/30,02:10,0.743,1.035,0.721,1.290,0.943,0.423,0.736,0.697,���쐼,1.5,��
2019/08/30,02:20,0.742,1.037,0.722,1.292,0.943,0.424,0.735,0.696,��,1.9,��
2019/08/30,02:30,0.741,1.038,0.723,1.292,0.945,0.424,0.735,0.696,��,1.4,��
2019/08/30,02:40,0.742,1.036,0.722,1.290,0.945,0.424,0.735,0.695,���k��,1.1,��
2019/08/30,02:50,0.742,1.038,0.725,1.290,0.945,0.424,0.736,0.696,�k��,1.5,��
2019/08/30,03:00,0.742,1.036,0.724,1.293,0.943,0.423,0.736,0.696,�k��,3.0,��
2019/08/30,03:10,0.741,1.039,0.725,1.293,0.943,0.423,0.734,0.695,�k��,3.6,��
2019/08/30,03:20,0.743,1.034,0.723,1.292,0.944,0.423,0.735,0.696,�k�k��,2.9,��
2019/08/30,03:30,0.741,1.036,0.722,1.294,0.943,0.423,0.734,0.694,�k�k��,3.6,��
2019/08/30,03:40,0.742,1.037,0.722,1.293,0.943,0.424,0.736,0.693,�k��,4.6,��
2019/08/30,03:50,0.743,1.036,0.725,1.290,0.944,0.423,0.736,0.695,�k��,4.1,��
2019/08/30,04:00,0.743,1.037,0.723,1.291,0.945,0.424,0.736,0.696,�k�k��,4.1,��
2019/08/30,04:10,0.745,1.037,0.723,1.291,0.943,0.423,0.735,0.696,�k�k��,3.1,��
2019/08/30,04:20,0.741,1.035,0.725,1.288,0.944,0.423,0.736,0.695,�k,2.3,��
2019/08/30,04:30,0.743,1.036,0.722,1.293,0.945,0.422,0.735,0.695,�k�k��,1.5,��
2019/08/30,04:40,0.744,1.037,0.723,1.292,0.944,0.424,0.735,0.696,�k,1.2,��
2019/08/30,04:50,0.743,1.035,0.723,1.292,0.943,0.425,0.736,0.695,�k�k��,1.7,��
2019/08/30,05:00,0.744,1.038,0.724,1.291,0.941,0.424,0.735,0.697,�k�k��,2.3,��
2019/08/30,05:10,0.742,1.037,0.722,1.293,0.943,0.423,0.736,0.696,�k�k��,2.5,��
2019/08/30,05:20,0.742,1.037,0.724,1.290,0.945,0.424,0.736,0.697,�k�k��,2.5,��
2019/08/30,05:30,0.741,1.035,0.724,1.290,0.941,0.424,0.736,0.696,�k�k��,2.6,��
2019/08/30,05:40,0.743,1.038,0.723,1.290,0.944,0.424,0.735,0.695,�k�k��,2.0,��
2019/08/30,05:50,0.741,1.036,0.723,1.290,0.943,0.422,0.736,0.695,�k,1.9,��
2019/08/30,06:00,0.744,1.035,0.722,1.291,0.943,0.423,0.736,0.696,�k�k��,1.5,��
2019/08/30,06:10,0.742,1.036,0.725,1.292,0.942,0.423,0.736,0.695,�k,1.5,��
2019/08/30,06:20,0.742,1.039,0.725,1.291,0.944,0.422,0.735,0.696,�k,2.0,��
2019/08/30,06:30,0.742,1.037,0.722,1.292,0.944,0.421,0.736,0.697,�k,1.2,��
2019/08/30,06:40,0.745,1.038,0.723,1.292,0.945,0.422,0.736,0.696,�k,1.5,��
2019/08/30,06:50,0.741,1.038,0.721,1.292,0.945,0.422,0.736,0.696,�k�k��,1.7,��
2019/08/30,07:00,0.744,1.036,0.725,1.291,0.941,0.421,0.737,0.696,�k�k��,3.4,��
2019/08/30,07:10,0.743,1.037,0.719,1.292,0.945,0.421,0.736,0.696,�k�k��,3.3,��
2019/08/30,07:20,0.744,1.037,0.723,1.292,0.943,0.419,0.735,0.696,�k��,2.2,��
2019/08/30,07:30,0.742,1.036,0.721,1.290,0.945,0.423,0.736,0.695,�k�k��,2.3,��
2019/08/30,07:40,0.743,1.034,0.722,1.292,0.945,0.420,0.737,0.696,�k�k��,1.7,��
2019/08/30,07:50,0.744,1.034,0.722,1.292,0.945,0.422,0.736,0.697,���k��,1.1,��
2019/08/30,08:00,0.743,1.035,0.723,1.291,0.946,0.421,0.736,0.696,��,0.8,��
2019/08/30,08:10,0.743,1.036,0.725,1.292,0.945,0.422,0.735,0.696,-,CALM,��
2019/08/30,08:20,0.745,1.033,0.724,1.292,0.944,0.421,0.737,0.695,�k��,0.8,��
2019/08/30,08:30,0.744,1.033,0.724,1.292,0.946,0.423,0.736,0.694,�쓌,0.9,��
2019/08/30,08:40,0.745,1.034,0.720,1.291,0.944,0.423,0.735,0.694,���쓌,1.2,��
2019/08/30,08:50,0.743,1.033,0.719,1.293,0.946,0.423,0.737,0.694,�쓌,1.4,��
2019/08/30,09:00,0.745,1.033,0.722,1.294,0.943,0.424,0.735,0.695,��쓌,1.4,��
2019/08/30,09:10,0.744,1.033,0.722,1.293,0.947,0.425,0.737,0.693,��쓌,1.2,��
2019/08/30,09:20,0.746,1.035,0.723,1.293,0.946,0.425,0.737,0.694,��쓌,0.6,��
2019/08/30,09:30,0.746,1.035,0.722,1.292,0.948,0.423,0.737,0.694,-,CALM,��
2019/08/30,09:40,0.744,1.033,0.722,1.294,0.947,0.424,0.735,0.695,-,CALM,��
2019/08/30,09:50,0.743,1.031,0.721,1.295,0.947,0.423,0.735,0.693,���k��,0.6,�L
2019/08/30,10:00,0.744,1.037,0.722,1.290,0.947,0.424,0.737,0.692,��,0.8,�L
2019/08/30,10:10,0.743,1.035,0.720,1.295,0.947,0.424,0.733,0.694,�k��,0.6,�L
2019/08/30,10:20,0.745,1.038,0.723,1.294,0.946,0.424,0.737,0.693,���k��,0.6,��
2019/08/30,10:30,0.746,1.036,0.722,1.293,0.948,0.424,0.736,0.695,��,1.2,��
2019/08/30,10:40,0.744,1.037,0.724,1.293,0.948,0.423,0.736,0.696,�쓌,2.6,�L
2019/08/30,10:50,0.746,1.036,0.725,1.292,0.947,0.424,0.737,0.695,���쓌,3.0,�L
2019/08/30,11:00,0.744,1.036,0.722,1.293,0.947,0.425,0.737,0.696,���쓌,2.3,�L
2019/08/30,11:10,0.745,1.036,0.723,1.293,0.948,0.425,0.737,0.698,���쓌,2.9,��
2019/08/30,11:20,0.744,1.037,0.726,1.293,0.949,0.425,0.738,0.698,�쓌,3.0,��
2019/08/30,11:30,0.746,1.039,0.723,1.294,0.949,0.425,0.737,0.696,���쓌,2.0,��
2019/08/30,11:40,0.747,1.040,0.723,1.294,0.950,0.424,0.738,0.697,���쓌,1.7,��
2019/08/30,11:50,0.746,1.039,0.725,1.296,0.950,0.426,0.738,0.697,���k��,1.9,��
2019/08/30,12:00,0.749,1.042,0.726,1.296,0.951,0.425,0.739,0.696,��,2.0,��
2019/08/30,12:10,0.748,1.042,0.727,1.297,0.952,0.424,0.736,0.694,���k��,2.0,��
2019/08/30,12:20,0.747,1.043,0.728,1.298,0.951,0.424,0.737,0.696,�k��,2.0,��
2019/08/30,12:30,0.747,1.040,0.726,1.294,0.950,0.425,0.737,0.696,���k��,1.7,��
2019/08/30,12:40,0.747,1.041,0.726,1.296,0.950,0.423,0.736,0.694,��,1.7,��
2019/08/30,12:50,0.747,1.041,0.725,1.294,0.947,0.425,0.737,0.695,�k��,1.5,��
2019/08/30,13:00,0.746,1.040,0.725,1.295,0.947,0.423,0.739,0.695,�k��,2.2,�L
2019/08/30,13:10,0.748,1.038,0.726,1.298,0.950,0.424,0.736,0.695,�k�k��,2.2,�L
2019/08/30,13:20,0.744,1.040,0.719,1.296,0.950,0.424,0.738,0.697,���k��,1.7,��
2019/08/30,13:30,0.746,1.037,0.724,1.297,0.953,0.424,0.736,0.695,���k��,1.7,��
2019/08/30,13:40,0.746,1.035,0.726,1.297,0.951,0.426,0.739,0.695,�k��,1.9,��
2019/08/30,13:50,0.745,1.040,0.725,1.296,0.952,0.425,0.738,0.697,�k�k��,3.2,��
2019/08/30,14:00,0.747,1.039,0.723,1.294,0.952,0.424,0.739,0.697,�k,3.6,�L
2019/08/30,14:10,0.744,1.037,0.728,1.296,0.949,0.423,0.737,0.697,�k,3.8,�L
2019/08/30,14:20,0.746,1.041,0.726,1.294,0.948,0.424,0.738,0.697,�k,4.7,�L
2019/08/30,14:30,0.745,1.040,0.724,1.294,0.951,0.426,0.740,0.698,�k,5.2,�L
2019/08/30,14:40,0.746,1.040,0.724,1.294,0.950,0.425,0.738,0.697,�k�k��,5.8,�L
2019/08/30,14:50,0.744,1.038,0.726,1.297,0.949,0.425,0.740,0.697,�k�k��,4.0,��
2019/08/30,15:00,0.744,1.040,0.727,1.295,0.950,0.424,0.738,0.699,�k�k��,5.5,�L
2019/08/30,15:10,0.743,1.043,0.724,1.297,0.951,0.423,0.741,0.698,�k��,4.5,�L
2019/08/30,15:20,0.746,1.039,0.726,1.295,0.951,0.424,0.739,0.699,�k��,5.0,�L
2019/08/30,15:30,0.744,1.040,0.724,1.295,0.951,0.423,0.738,0.697,�k��,3.5,�L
2019/08/30,15:40,0.743,1.040,0.727,1.297,0.949,0.425,0.738,0.696,���k��,4.5,�L
2019/08/30,15:50,0.747,1.042,0.727,1.297,0.950,0.423,0.740,0.697,���k��,2.5,�L
2019/08/30,16:00,0.745,1.041,0.725,1.297,0.948,0.423,0.738,0.697,�k��,2.3,�L
2019/08/30,16:10,0.745,1.043,0.726,1.296,0.951,0.422,0.740,0.698,�k�k��,2.3,�L
2019/08/30,16:20,0.744,1.042,0.724,1.297,0.950,0.421,0.737,0.697,�k,2.0,�L
2019/08/30,16:30,0.743,1.044,0.726,1.296,0.951,0.424,0.736,0.697,�k,2.6,�L
2019/08/30,16:40,0.745,1.044,0.724,1.297,0.950,0.424,0.738,0.698,�k,3.2,�L
2019/08/30,16:50,0.743,1.041,0.724,1.293,0.950,0.421,0.737,0.697,�k,3.0,�L
2019/08/30,17:00,0.744,1.041,0.725,1.297,0.948,0.424,0.737,0.697,�k�k��,2.5,��
2019/08/30,17:10,0.743,1.043,0.724,1.295,0.948,0.423,0.738,0.699,�k,2.3,��
2019/08/30,17:20,0.743,1.043,0.724,1.294,0.950,0.420,0.739,0.698,�k�k��,2.0,��
2019/08/30,17:30,0.744,1.042,0.727,1.297,0.950,0.423,0.738,0.696,�k�k��,2.6,��
2019/08/30,17:40,0.742,1.042,0.724,1.297,0.949,0.422,0.737,0.698,�k�k��,2.6,��
2019/08/30,17:50,0.741,1.039,0.727,1.297,0.947,0.421,0.738,0.698,�k��,2.6,��
2019/08/30,18:00,0.744,1.042,0.725,1.297,0.949,0.422,0.739,0.698,�k�k��,2.8,��
2019/08/30,18:10,0.743,1.041,0.724,1.297,0.951,0.423,0.739,0.698,�k�k��,3.5,��
2019/08/30,18:20,0.744,1.043,0.725,1.296,0.948,0.422,0.736,0.697,�k�k��,2.5,��
2019/08/30,18:30,0.743,1.041,0.725,1.296,0.948,0.423,0.737,0.697,�k�k��,2.0,��
2019/08/30,18:40,0.743,1.042,0.724,1.297,0.949,0.421,0.739,0.699,�k�k��,3.2,��
2019/08/30,18:50,0.743,1.045,0.726,1.293,0.951,0.423,0.738,0.699,�k�k��,3.2,��
2019/08/30,19:00,0.745,1.043,0.725,1.299,0.950,0.422,0.739,0.698,�k�k��,3.2,��
2019/08/30,19:10,0.745,1.042,0.726,1.298,0.949,0.423,0.736,0.698,�k�k��,3.4,��
2019/08/30,19:20,0.744,1.043,0.727,1.295,0.950,0.422,0.739,0.696,�k�k��,4.2,��
2019/08/30,19:30,0.746,1.041,0.726,1.297,0.951,0.423,0.739,0.697,�k�k��,3.0,��
2019/08/30,19:40,0.746,1.040,0.726,1.297,0.949,0.423,0.740,0.699,�k�k��,4.1,��
2019/08/30,19:50,0.746,1.043,0.728,1.296,0.950,0.422,0.736,0.697,�k�k��,3.9,��
2019/08/30,20:00,0.746,1.042,0.726,1.300,0.949,0.422,0.736,0.699,�k�k��,3.8,��
2019/08/30,20:10,0.744,1.043,0.727,1.298,0.948,0.422,0.738,0.697,�k�k��,4.0,��
2019/08/30,20:20,0.746,1.042,0.726,1.295,0.950,0.423,0.737,0.697,�k�k��,3.3,��
2019/08/30,20:30,0.745,1.043,0.725,1.298,0.950,0.422,0.739,0.699,�k�k��,2.6,��
2019/08/30,20:40,0.746,1.044,0.728,1.296,0.949,0.423,0.738,0.697,�k��,2.3,��
2019/08/30,20:50,0.746,1.042,0.726,1.297,0.951,0.423,0.739,0.696,�k�k��,1.9,��
2019/08/30,21:00,0.746,1.040,0.727,1.294,0.951,0.421,0.739,0.697,�k��,1.7,��
2019/08/30,21:10,0.747,1.038,0.727,1.295,0.951,0.422,0.737,0.697,�k�k��,2.0,��
2019/08/30,21:20,0.743,1.043,0.726,1.300,0.950,0.422,0.740,0.700,�k,0.8,��
2019/08/30,21:30,0.746,1.047,0.727,1.296,0.952,0.424,0.738,0.697,�k��,0.8,��
2019/08/30,21:40,0.747,1.046,0.727,1.295,0.948,0.422,0.738,0.698,�쐼,0.8,��
2019/08/30,21:50,0.746,1.042,0.727,1.298,0.950,0.423,0.739,0.698,��,0.9,��
2019/08/30,22:00,0.746,1.043,0.728,1.298,0.952,0.423,0.739,0.696,��쐼,1.2,��
2019/08/30,22:10,0.745,1.043,0.726,1.296,0.951,0.422,0.739,0.698,�쐼,1.2,��
2019/08/30,22:20,0.747,1.045,0.727,1.296,0.951,0.423,0.737,0.698,�쐼,1.2,��
2019/08/30,22:30,0.745,1.043,0.726,1.297,0.950,0.423,0.737,0.698,��,1.2,��
2019/08/30,22:40,0.746,1.043,0.726,1.298,0.951,0.421,0.738,0.698,��쐼,0.9,��
2019/08/30,22:50,0.745,1.043,0.727,1.298,0.951,0.422,0.739,0.696,��쐼,1.5,��
2019/08/30,23:00,0.747,1.042,0.727,1.296,0.951,0.425,0.736,0.699,��쐼,1.4,��
2019/08/30,23:10,0.747,1.045,0.727,1.296,0.955,0.422,0.738,0.699,�쐼,1.4,��
2019/08/30,23:20,0.744,1.041,0.728,1.300,0.949,0.424,0.738,0.700,�쐼,2.2,��
2019/08/30,23:30,0.747,1.046,0.728,1.297,0.952,0.423,0.738,0.697,���쐼,2.6,��
2019/08/30,23:40,0.748,1.046,0.727,1.299,0.950,0.423,0.738,0.697,���쐼,2.6,��
2019/08/30,23:50,0.747,1.042,0.729,1.299,0.952,0.422,0.739,0.699,��,2.5,��
